OCN4ES LGIR-EDDF

Flight info

Callsign OCN4ES
Flight time N/A
Altitude 34000
Route EPALO UM749 DIRMI UL613 XANIS DCT DIMIS DCT PETAK DCT GLOMY DCT ELTIB DCT TUPUS DCT GORPA DCT SIMBA DCT AKINI T161 DEBHI DEBHI1C
Aircraft A320/M-SDE3FGHIRWY/LB1

Departure

Time 2026-04-29 15:19
Airport Heraklion International Nikos Kazantzakis Airport (LGIR)

Arrival

Time N/A
Airport Frankfurt Main Airport (EDDF)
Time Latitude Longitude Altitude Speed Heading
2026-04-29 14:48 35.33807 25.17552 98 ft 0 kts 316°
2026-04-29 15:13 35.33820 25.17536 97 ft 5 kts 316°
2026-04-29 15:14 35.33857 25.17505 97 ft 7 kts 353°
2026-04-29 15:14 35.33906 25.17527 97 ft 7 kts 70°
2026-04-29 15:14 35.33904 25.17605 97 ft 10 kts 94°
2026-04-29 15:14 35.33898 25.17697 97 ft 11 kts 96°
2026-04-29 15:15 35.33889 25.17803 97 ft 13 kts 95°
2026-04-29 15:15 35.33882 25.17922 97 ft 14 kts 93°
2026-04-29 15:15 35.33875 25.18051 97 ft 15 kts 95°
2026-04-29 15:15 35.33864 25.18189 97 ft 17 kts 95°
2026-04-29 15:16 35.33854 25.18341 97 ft 18 kts 95°
2026-04-29 15:16 35.33842 25.18500 97 ft 19 kts 94°
2026-04-29 15:16 35.33831 25.18666 97 ft 19 kts 95°
2026-04-29 15:16 35.33820 25.18834 97 ft 20 kts 94°
2026-04-29 15:17 35.33815 25.18912 97 ft 0 kts 90°
2026-04-29 15:18 35.33816 25.18924 97 ft 3 kts 82°
2026-04-29 15:18 35.33833 25.18965 97 ft 7 kts 56°
2026-04-29 15:18 35.33871 25.19033 97 ft 11 kts 55°
2026-04-29 15:18 35.33907 25.19011 97 ft 6 kts 274°
2026-04-29 15:19 35.33911 25.18930 97 ft 24 kts 275°
2026-04-29 15:19 35.33951 25.18355 97 ft 107 kts 275°
2026-04-29 15:19 35.34033 25.17174 121 ft 169 kts 276°
2026-04-29 15:19 35.34145 25.15742 850 ft 171 kts 282°
2026-04-29 15:20 35.34727 25.14524 1617 ft 174 kts 329°
2026-04-29 15:20 35.35849 25.14071 2364 ft 176 kts 348°
2026-04-29 15:20 35.37063 25.13771 3050 ft 182 kts 349°
2026-04-29 15:20 35.38299 25.13398 3781 ft 186 kts 345°
2026-04-29 15:21 35.39588 25.12977 4305 ft 203 kts 345°
2026-04-29 15:21 35.41012 25.12495 4883 ft 218 kts 344°
2026-04-29 15:21 35.42517 25.11951 5375 ft 240 kts 343°
2026-04-29 15:21 35.44180 25.11334 5954 ft 259 kts 343°
2026-04-29 15:22 35.45941 25.10664 6732 ft 269 kts 342°
2026-04-29 15:22 35.47722 25.09998 7632 ft 275 kts 343°
2026-04-29 15:22 35.49558 25.09312 8616 ft 277 kts 342°
2026-04-29 15:22 35.51376 25.08629 9560 ft 280 kts 342°
2026-04-29 15:23 35.53247 25.07925 10481 ft 285 kts 342°
2026-04-29 15:23 35.55175 25.07200 11117 ft 300 kts 342°
2026-04-29 15:23 35.57248 25.06419 11614 ft 319 kts 342°
2026-04-29 15:23 35.59418 25.05602 12059 ft 337 kts 342°
2026-04-29 15:24 35.61731 25.04731 12461 ft 355 kts 342°
2026-04-29 15:24 35.64085 25.03688 12857 ft 370 kts 335°
2026-04-29 15:24 35.66379 25.02118 13278 ft 382 kts 326°
2026-04-29 15:24 35.68526 25.00192 13912 ft 386 kts 322°
2026-04-29 15:25 35.70668 24.98162 14647 ft 389 kts 322°
2026-04-29 15:25 35.72802 24.96149 15314 ft 392 kts 322°
2026-04-29 15:25 35.74989 24.94098 15945 ft 395 kts 322°
2026-04-29 15:25 35.77164 24.92062 16377 ft 397 kts 322°
2026-04-29 15:26 35.79379 24.89992 16805 ft 399 kts 322°
2026-04-29 15:26 35.81573 24.87941 17190 ft 401 kts 322°
2026-04-29 15:26 35.83800 24.85859 17579 ft 404 kts 322°
2026-04-29 15:26 35.86066 24.83740 17971 ft 406 kts 322°
2026-04-29 15:27 35.88319 24.81630 18338 ft 408 kts 322°
2026-04-29 15:27 35.90550 24.79540 18728 ft 409 kts 322°
2026-04-29 15:27 35.92812 24.77418 19101 ft 411 kts 322°
2026-04-29 15:27 35.95105 24.75265 19434 ft 413 kts 322°
2026-04-29 15:28 35.97372 24.73137 19768 ft 415 kts 321°
2026-04-29 15:28 35.98914 24.71690 20001 ft 415 kts 321°
2026-04-29 15:28 36.02003 24.68789 20454 ft 417 kts 321°
2026-04-29 15:28 36.04301 24.66629 20778 ft 419 kts 321°
2026-04-29 15:29 36.06623 24.64442 21092 ft 420 kts 321°
2026-04-29 15:29 36.11276 24.60053 21705 ft 423 kts 321°
2026-04-29 15:30 36.15466 24.56097 22243 ft 425 kts 321°
2026-04-29 15:30 36.17343 24.54322 22495 ft 425 kts 321°
2026-04-29 15:30 36.19691 24.52098 22776 ft 427 kts 321°
2026-04-29 15:30 36.22067 24.49849 23021 ft 428 kts 321°
2026-04-29 15:31 36.24433 24.47606 23309 ft 429 kts 321°
2026-04-29 15:31 36.26784 24.45377 23565 ft 430 kts 321°
2026-04-29 15:31 36.29183 24.43097 23805 ft 432 kts 321°
2026-04-29 15:31 36.31555 24.40840 23998 ft 434 kts 321°
2026-04-29 15:32 36.33963 24.38552 24227 ft 435 kts 321°
2026-04-29 15:32 36.36377 24.36254 24473 ft 436 kts 321°
2026-04-29 15:32 36.38759 24.33984 24682 ft 438 kts 321°
2026-04-29 15:32 36.41186 24.31672 24893 ft 439 kts 321°
2026-04-29 15:33 36.43618 24.29356 25104 ft 440 kts 321°
2026-04-29 15:33 36.46063 24.27025 25283 ft 442 kts 321°
2026-04-29 15:33 36.48468 24.24729 25462 ft 443 kts 321°
2026-04-29 15:33 36.50945 24.22363 25632 ft 444 kts 321°
2026-04-29 15:34 36.53384 24.20031 25808 ft 445 kts 321°
2026-04-29 15:34 36.55841 24.17677 26044 ft 444 kts 321°
2026-04-29 15:34 36.58265 24.15353 26268 ft 444 kts 321°
2026-04-29 15:34 36.60718 24.13001 26479 ft 444 kts 321°
2026-04-29 15:35 36.63146 24.10670 26698 ft 443 kts 321°
2026-04-29 15:35 36.65604 24.08310 26924 ft 443 kts 321°
2026-04-29 15:35 36.68022 24.05985 27165 ft 442 kts 321°
2026-04-29 15:35 36.70435 24.03660 27377 ft 442 kts 321°
2026-04-29 15:36 36.72861 24.01323 27561 ft 442 kts 321°
2026-04-29 15:36 36.75304 23.98966 27776 ft 442 kts 321°
2026-04-29 15:36 36.77736 23.96620 28027 ft 440 kts 321°
2026-04-29 15:36 36.80145 23.94292 28273 ft 439 kts 321°
2026-04-29 15:37 36.82547 23.91970 28480 ft 439 kts 321°
2026-04-29 15:37 36.84956 23.89639 28657 ft 439 kts 321°
2026-04-29 15:37 36.87386 23.87291 28835 ft 440 kts 321°
2026-04-29 15:37 36.89806 23.84951 29042 ft 439 kts 321°
2026-04-29 15:38 36.92216 23.82618 29279 ft 438 kts 321°
2026-04-29 15:38 36.94622 23.80285 29479 ft 438 kts 321°
2026-04-29 15:38 36.97021 23.77955 29659 ft 438 kts 321°
2026-04-29 15:38 36.99397 23.75647 29856 ft 437 kts 321°
2026-04-29 15:39 37.01808 23.73303 30056 ft 436 kts 321°
2026-04-29 15:39 37.04182 23.70992 30269 ft 436 kts 321°
2026-04-29 15:39 37.06593 23.68643 30487 ft 435 kts 321°
2026-04-29 15:39 37.08962 23.66332 30673 ft 435 kts 321°
2026-04-29 15:40 37.11342 23.64010 30862 ft 434 kts 321°
2026-04-29 15:40 37.13734 23.61675 31074 ft 433 kts 321°
2026-04-29 15:40 37.16116 23.59348 31267 ft 433 kts 321°
2026-04-29 15:40 37.18465 23.57050 31456 ft 432 kts 321°
2026-04-29 15:41 37.20845 23.54721 31655 ft 432 kts 321°
2026-04-29 15:41 37.23214 23.52398 31826 ft 432 kts 321°
2026-04-29 15:41 37.25567 23.50090 32011 ft 431 kts 321°
2026-04-29 15:41 37.27929 23.47772 32207 ft 431 kts 321°
2026-04-29 15:42 37.30264 23.45478 32359 ft 431 kts 321°
2026-04-29 15:42 37.32627 23.43157 32489 ft 431 kts 321°
2026-04-29 15:42 37.34978 23.40843 32619 ft 431 kts 321°
2026-04-29 15:42 37.37350 23.38507 32739 ft 432 kts 321°
2026-04-29 15:43 37.39717 23.36174 32857 ft 432 kts 321°
2026-04-29 15:43 37.42066 23.33857 32976 ft 432 kts 320°
2026-04-29 15:43 37.44441 23.31513 33089 ft 433 kts 320°
2026-04-29 15:43 37.46812 23.29170 33200 ft 433 kts 320°
2026-04-29 15:44 37.49164 23.26845 33304 ft 434 kts 320°
2026-04-29 15:44 37.51551 23.24482 33412 ft 434 kts 320°
2026-04-29 15:44 37.53930 23.22127 33516 ft 435 kts 320°
2026-04-29 15:45 37.58655 23.17442 33698 ft 435 kts 320°
2026-04-29 15:45 37.63421 23.12708 33883 ft 436 kts 320°
2026-04-29 15:46 37.68157 23.07993 34025 ft 437 kts 320°
2026-04-29 15:46 37.72944 23.03221 34086 ft 437 kts 320°
2026-04-29 15:47 37.77700 22.98472 34097 ft 437 kts 320°
2026-04-29 15:47 37.82485 22.93685 34099 ft 438 kts 320°
2026-04-29 15:48 37.87246 22.88913 34096 ft 439 kts 320°
2026-04-29 15:48 37.92038 22.84107 34075 ft 439 kts 320°
2026-04-29 15:49 37.96816 22.79307 34065 ft 440 kts 320°
2026-04-29 15:49 38.01605 22.74484 34048 ft 440 kts 320°
2026-04-29 15:50 38.06391 22.69655 34047 ft 439 kts 320°
2026-04-29 15:50 38.11158 22.64841 34047 ft 439 kts 320°
2026-04-29 15:51 38.15917 22.60031 34047 ft 438 kts 320°
2026-04-29 15:51 38.20707 22.55176 34046 ft 438 kts 320°
2026-04-29 15:52 38.25468 22.50342 34038 ft 439 kts 320°
2026-04-29 15:52 38.30210 22.45517 34053 ft 439 kts 320°
2026-04-29 15:53 38.34959 22.40678 34070 ft 439 kts 320°
2026-04-29 15:53 38.39739 22.35796 34087 ft 438 kts 320°
2026-04-29 15:54 38.44508 22.30918 34102 ft 438 kts 320°
2026-04-29 15:54 38.49257 22.26051 34120 ft 439 kts 320°
2026-04-29 15:55 38.53994 22.21188 34121 ft 439 kts 319°
2026-04-29 15:55 38.58757 22.16295 34125 ft 439 kts 320°
2026-04-29 15:56 38.63524 22.11404 34119 ft 438 kts 320°
2026-04-29 15:56 38.68264 22.06527 34120 ft 437 kts 320°
2026-04-29 15:57 38.72988 22.01658 34116 ft 437 kts 320°
2026-04-29 15:57 38.77709 21.96782 34118 ft 438 kts 320°
2026-04-29 15:58 38.82465 21.91861 34115 ft 439 kts 320°
2026-04-29 15:58 38.87197 21.86954 34117 ft 439 kts 320°
2026-04-29 15:59 38.91953 21.82014 34121 ft 440 kts 320°
2026-04-29 15:59 38.96697 21.77079 34113 ft 440 kts 320°
2026-04-29 16:00 39.01447 21.72130 34109 ft 439 kts 320°
2026-04-29 16:00 39.06165 21.67204 34103 ft 439 kts 320°
2026-04-29 16:01 39.10918 21.62231 34095 ft 439 kts 320°
2026-04-29 16:01 39.15643 21.57280 34100 ft 440 kts 320°
2026-04-29 16:02 39.20408 21.52279 34107 ft 440 kts 320°
2026-04-29 16:02 39.25123 21.47320 34112 ft 439 kts 320°
2026-04-29 16:03 39.29844 21.42346 34118 ft 439 kts 320°
2026-04-29 16:03 39.34567 21.37361 34120 ft 439 kts 320°
2026-04-29 16:04 39.39316 21.32341 34125 ft 439 kts 319°
2026-04-29 16:04 39.44021 21.27358 34128 ft 438 kts 319°
2026-04-29 16:05 39.48753 21.22337 34139 ft 439 kts 319°
2026-04-29 16:05 39.53458 21.17333 34129 ft 439 kts 319°
2026-04-29 16:06 39.58171 21.12313 34127 ft 439 kts 319°
2026-04-29 16:06 39.62868 21.07302 34132 ft 439 kts 319°
2026-04-29 16:07 39.67573 21.02275 34127 ft 438 kts 319°
2026-04-29 16:07 39.72263 20.97251 34123 ft 437 kts 319°
2026-04-29 16:08 39.76947 20.92228 34116 ft 437 kts 319°
2026-04-29 16:08 39.81642 20.87182 34122 ft 437 kts 319°
2026-04-29 16:09 39.86328 20.82135 34128 ft 438 kts 319°
2026-04-29 16:09 39.91020 20.77072 34141 ft 438 kts 319°
2026-04-29 16:10 39.95715 20.71997 34146 ft 438 kts 319°
2026-04-29 16:10 40.00395 20.66927 34148 ft 437 kts 319°
2026-04-29 16:11 40.05078 20.61940 34142 ft 437 kts 321°
2026-04-29 16:11 40.10112 20.57455 34136 ft 439 kts 327°
2026-04-29 16:12 40.15419 20.53493 34126 ft 439 kts 329°
2026-04-29 16:12 40.20756 20.49592 34119 ft 440 kts 329°
2026-04-29 16:13 40.26091 20.45682 34118 ft 439 kts 329°
2026-04-29 16:13 40.31378 20.41796 34120 ft 439 kts 329°
2026-04-29 16:14 40.36708 20.37872 34118 ft 438 kts 329°